Total_Precipitation_Accumulation
0.53 0.44 0.58 0.59 0.49 0.54 0.71 0.57 0.42 0.18 0.13 0.13 0.14 0.15 0.13 0.12 0.08 0.05 0.04 0.03 0.03 0.04 0.04 0.05 0.06 0.05 0.05 0.06 0.07 0.09 0.11 0.13 0.12 0.11 0.11 0.12 0.11 0.10 0.09 0.07 0.07 0.07 0.08 0.09
0.50 0.41 0.53 0.54 0.43 0.41 0.38 0.32 0.29 0.22 0.21 0.13 0.13 0.14 0.13 0.13 0.08 0.06 0.05 0.03 0.03 0.04 0.03 0.03 0.04 0.04 0.04 0.05 0.07 0.09 0.13 0.16 0.14 0.13 0.13 0.15 0.17 0.15 0.14 0.15 0.15 0.16 0.19 0.22
0.50 0.37 0.47 0.53 0.39 0.31 0.26 0.21 0.22 0.26 0.22 0.13 0.16 0.17 0.16 0.14 0.10 0.06 0.04 0.03 0.03 0.03 0.02 0.03 0.04 0.04 0.04 0.06 0.08 0.10 0.15 0.23 0.22 0.21 0.21 0.21 0.25 0.27 0.28 0.30 0.32 0.36 0.41 0.47
0.45 0.40 0.50 0.37 0.20 0.16 0.15 0.13 0.14 0.15 0.13 0.13 0.18 0.18 0.13 0.10 0.08 0.06 0.03 0.02 0.02 0.02 0.01 0.01 0.03 0.05 0.06 0.07 0.09 0.10 0.13 0.19 0.26 0.30 0.37 0.39 0.42 0.46 0.47 0.50 0.56 0.63 0.69 0.69
0.33 0.29 0.22 0.12 0.09 0.08 0.10 0.11 0.07 0.08 0.07 0.07 0.11 0.19 0.17 0.10 0.07 0.06 0.04 0.03 0.04 0.04 0.04 0.04 0.05 0.06 0.08 0.11 0.13 0.16 0.19 0.23 0.29 0.35 0.45 0.51 0.59 0.64 0.66 0.70 0.73 0.73 0.69 0.62
0.26 0.21 0.10 0.05 0.03 0.03 0.06 0.10 0.06 0.05 0.05 0.04 0.06 0.12 0.15 0.14 0.10 0.06 0.06 0.06 0.06 0.07 0.08 0.10 0.11 0.14 0.19 0.23 0.28 0.33 0.39 0.43 0.47 0.53 0.58 0.59 0.63 0.67 0.64 0.59 0.54 0.45 0.36 0.27
0.23 0.18 0.03 0.01 0.01 0.01 0.07 0.10 0.04 0.05 0.05 0.04 0.04 0.04 0.05 0.06 0.08 0.10 0.09 0.10 0.11 0.11 0.13 0.15 0.20 0.26 0.35 0.41 0.47 0.51 0.53 0.56 0.61 0.63 0.62 0.56 0.49 0.41 0.31 0.24 0.19 0.14 0.10 0.07
0.11 0.12 0.03 0.01 0.01 0.02 0.03 0.02 0.02 0.03 0.04 0.03 0.03 0.03 0.02 0.02 0.03 0.06 0.09 0.13 0.17 0.18 0.19 0.22 0.26 0.32 0.38 0.44 0.46 0.45 0.46 0.45 0.41 0.36 0.29 0.23 0.18 0.13 0.09 0.07 0.04 0.02 0.01 0.01
0.03 0.02 0.01 0.01 0.01 0.02 0.02 0.01 0.01 0.01 0.02 0.01 0.01 0.01 0.01 0.01 0.01 0.02 0.04 0.07 0.09 0.11 0.13 0.14 0.16 0.18 0.23 0.23 0.19 0.17 0.15 0.13 0.11 0.08 0.05 0.04 0.03 0.02 0.01 0.01 0.00 0.00 0.00 0.00
0.03 0.01 0.01 0.01 0.01 0.01 0.01 0.02 0.01 0.01 0.02 0.02 0.02 0.03 0.03 0.02 0.02 0.02 0.02 0.03 0.04 0.05 0.06 0.06 0.06 0.07 0.10 0.09 0.06 0.04 0.04 0.03 0.02 0.01 0.01 0.00 0.00 0.00 0.00 0.00 0.00 0.00 0.00 0.00
0.04 0.02 0.03 0.02 0.01 0.01 0.01 0.01 0.01 0.01 0.01 0.02 0.02 0.02 0.02 0.02 0.02 0.01 0.01 0.01 0.01 0.02 0.02 0.02 0.02 0.02 0.02 0.02 0.02 0.01 0.01 0.01 0.00 0.00 0.00 0.00 0.00 0.00 0.00 0.00 0.00 0.00 0.00 0.00
0.05 0.03 0.03 0.02 0.01 0.01 0.02 0.02 0.02 0.02 0.01 0.01 0.01 0.01 0.01 0.02 0.02 0.02 0.02 0.01 0.01 0.02 0.02 0.02 0.02 0.02 0.02 0.02 0.01 0.01 0.01 0.01 0.01 0.01 0.00 0.00 0.00 0.00 0.00 0.00 0.00 0.00 0.00 0.00
0.03 0.03 0.03 0.02 0.02 0.02 0.03 0.03 0.03 0.03 0.03 0.01 0.01 0.01 0.02 0.02 0.02 0.02 0.03 0.02 0.02 0.02 0.02 0.02 0.02 0.02 0.01 0.01 0.01 0.01 0.01 0.01 0.01 0.01 0.00 0.00 0.00 0.00 0.00 0.00 0.00 0.00 0.00 0.00
0.02 0.03 0.03 0.02 0.02 0.01 0.01 0.02 0.02 0.03 0.03 0.03 0.02 0.01 0.01 0.02 0.02 0.02 0.03 0.03 0.02 0.03 0.02 0.02 0.02 0.03 0.03 0.02 0.02 0.02 0.02 0.02 0.02 0.01 0.01 0.01 0.00 0.00 0.00 0.00 0.00 0.00 0.00 0.00
0.02 0.02 0.02 0.02 0.02 0.01 0.01 0.01 0.02 0.02 0.02 0.02 0.02 0.02 0.01 0.01 0.02 0.02 0.02 0.02 0.02 0.02 0.02 0.02 0.03 0.03 0.03 0.02 0.02 0.02 0.02 0.03 0.03 0.02 0.02 0.01 0.01 0.01 0.00 0.00 0.00 0.00 0.00 0.00
0.02 0.02 0.02 0.02 0.02 0.02 0.01 0.01 0.01 0.01 0.01 0.01 0.01 0.01 0.01 0.01 0.01 0.01 0.02 0.02 0.02 0.02 0.02 0.02 0.03 0.03 0.03 0.02 0.02 0.02 0.02 0.03 0.04 0.03 0.03 0.02 0.02 0.02 0.01 0.01 0.01 0.01 0.01 0.01
0.05 0.04 0.04 0.03 0.03 0.02 0.01 0.01 0.01 0.02 0.02 0.02 0.01 0.01 0.01 0.01 0.01 0.01 0.02 0.02 0.02 0.02 0.02 0.02 0.02 0.03 0.02 0.02 0.03 0.03 0.03 0.04 0.06 0.05 0.04 0.03 0.03 0.03 0.03 0.02 0.02 0.01 0.01 0.01
0.07 0.07 0.06 0.05 0.04 0.04 0.04 0.03 0.03 0.03 0.03 0.02 0.02 0.02 0.01 0.01 0.01 0.01 0.02 0.02 0.02 0.02 0.03 0.03 0.03 0.03 0.03 0.03 0.03 0.03 0.04 0.04 0.05 0.05 0.04 0.04 0.04 0.04 0.03 0.03 0.02 0.02 0.01 0.02
0.09 0.08 0.07 0.07 0.07 0.07 0.07 0.06 0.06 0.05 0.04 0.03 0.02 0.02 0.02 0.01 0.01 0.01 0.01 0.02 0.02 0.03 0.03 0.04 0.05 0.05 0.04 0.05 0.06 0.05 0.05 0.05 0.05 0.05 0.05 0.06 0.06 0.04 0.03 0.03 0.02 0.02 0.02 0.02
0.11 0.12 0.11 0.10 0.10 0.10 0.09 0.07 0.06 0.05 0.04 0.03 0.03 0.03 0.03 0.02 0.02 0.02 0.02 0.02 0.02 0.03 0.04 0.04 0.04 0.04 0.04 0.05 0.06 0.05 0.05 0.05 0.06 0.06 0.06 0.07 0.06 0.05 0.04 0.04 0.04 0.03 0.03 0.03
0.11 0.12 0.13 0.13 0.13 0.13 0.12 0.10 0.08 0.07 0.07 0.06 0.05 0.05 0.04 0.03 0.03 0.02 0.02 0.02 0.03 0.03 0.04 0.04 0.04 0.03 0.04 0.05 0.06 0.05 0.05 0.06 0.07 0.07 0.08 0.08 0.07 0.07 0.06 0.05 0.05 0.04 0.04 0.04
0.13 0.13 0.12 0.12 0.11 0.11 0.11 0.09 0.09 0.09 0.09 0.08 0.07 0.06 0.05 0.04 0.03 0.03 0.03 0.04 0.04 0.05 0.04 0.03 0.03 0.05 0.06 0.07 0.06 0.05 0.06 0.07 0.08 0.08 0.08 0.08 0.08 0.07 0.07 0.06 0.06 0.06 0.05 0.05
0.13 0.13 0.13 0.13 0.12 0.12 0.11 0.10 0.10 0.09 0.09 0.09 0.08 0.08 0.07 0.06 0.05 0.04 0.05 0.05 0.04 0.04 0.04 0.03 0.05 0.07 0.08 0.07 0.06 0.06 0.07 0.07 0.08 0.08 0.08 0.08 0.08 0.08 0.07 0.07 0.07 0.06 0.06 0.05
0.11 0.12 0.12 0.10 0.09 0.09 0.09 0.09 0.10 0.11 0.10 0.10 0.10 0.09 0.08 0.07 0.06 0.05 0.06 0.07 0.07 0.06 0.05 0.05 0.07 0.07 0.07 0.07 0.06 0.07 0.08 0.08 0.08 0.08 0.08 0.07 0.07 0.07 0.07 0.07 0.07 0.06 0.05 0.05
0.07 0.08 0.08 0.08 0.08 0.07 0.07 0.07 0.08 0.09 0.10 0.09 0.09 0.09 0.08 0.07 0.07 0.08 0.07 0.06 0.06 0.07 0.06 0.07 0.08 0.08 0.08 0.08 0.08 0.08 0.08 0.08 0.08 0.08 0.07 0.07 0.07 0.07 0.07 0.06 0.06 0.06 0.05 0.05
0.04 0.04 0.04 0.04 0.04 0.05 0.04 0.05 0.06 0.07 0.07 0.07 0.08 0.08 0.08 0.07 0.07 0.07 0.07 0.07 0.07 0.08 0.07 0.07 0.07 0.08 0.08 0.08 0.08 0.08 0.08 0.08 0.08 0.07 0.06 0.06 0.06 0.07 0.06 0.06 0.05 0.05 0.05 0.04
0.02 0.02 0.02 0.02 0.02 0.02 0.02 0.03 0.04 0.05 0.06 0.07 0.08 0.09 0.08 0.07 0.06 0.07 0.07 0.07 0.07 0.08 0.07 0.07 0.07 0.08 0.08 0.07 0.07 0.07 0.06 0.06 0.06 0.06 0.06 0.06 0.05 0.05 0.05 0.05 0.05 0.04 0.04 0.04